Flag for Australia Weather past 2 weeks in Perth, Western Australia, Australia

Now
59 °F

Light rain. Overcast.


Feels Like: 60 °F
Forecast: 58 / 68 °F
Wind: 3 mph from East

Location: Belmont Perth Airport

Current Time: Jul 1, 2015 at 8:00:57 PM

Latest Report: Jul 1, 2015 at 7:30 PM


Visibility: N/A

Pressure: 30.24 "Hg

Humidity: 82%

Dew point: 54 °F

Location of PerthLocation

Historic Weather in Perth — Graph

°F

Perth temperature yesterday

Maximum temperature yesterday: 73 °F (at 2:00 PM)
Minimum temperature yesterday: 50 °F (at 5:30 AM)
Average temperature yesterday: 60 °F

Past Weeks' High & Low Weather Summary

 TemperatureHumidityPressure
High73 °F (Jun 19, 3:00 PM)100% (Jun 19, 2:00 AM)30.45 "Hg (Jun 19, 2:00 AM)
Low36 °F (Jun 23, 5:00 AM)25% (Jun 30, 2:00 PM)29.71 "Hg (Jun 21, 5:00 AM)
Average58 °F71%30.15 "Hg
* Reported Jun 16 6:00 PM — Jul 1 6:30 PM, Perth, Weather by CustomWeather, © 2015

Note: Actual official high and low records may vary slightly from our data, if they occured in-between our weather recording intervals... More about our weather records

Advertising

Perth weather history for previous 24 hours

 ConditionsComfort  
Time TempWeatherWind HumidityBarometerVisibility
6:30 PM
Wed, Jul 1
59 °FLight rain. Overcast.9 mph82%30.24 "HgN/A
6:00 PM61 °FLight rain. Mostly cloudy.8 mph72%30.24 "HgN/A
5:30 PM61 °FLight rain. Mostly cloudy.6 mph72%30.24 "HgN/A
5:00 PM61 °FLight rain. Mostly cloudy.7 mph72%30.24 "HgN/A
4:30 PM61 °FLight rain. Overcast.6 mph72%30.24 "HgN/A
4:00 PM63 °FLight rain. Cloudy.9 mph59%30.24 "HgN/A
3:30 PM64 °FLight rain. Mostly cloudy.8 mph60%30.21 "HgN/A
3:00 PM66 °FLight rain. Mostly cloudy.6 mph60%30.21 "HgN/A
2:30 PM66 °FSunny.5 mph49%30.21 "Hg10 mi
2:00 PM66 °FSunny.6 mph46%30.21 "Hg10 mi
1:30 PM66 °FSunny.5 mph46%30.21 "Hg10 mi
1:00 PM66 °FSunny.6 mph46%30.21 "Hg10 mi
12:30 PM66 °FSunny.6 mph49%30.21 "Hg10 mi
11:30 AM64 °FSunny.8 mph56%30.21 "Hg10 mi
10:30 AM64 °FSunny.7 mph52%30.24 "Hg10 mi
10:00 AM66 °FSunny.6 mph49%30.24 "Hg10 mi
9:30 AM64 °FSunny.8 mph52%30.24 "Hg10 mi
9:00 AM59 °FSunny.6 mph63%30.24 "Hg10 mi
8:30 AM59 °FSunny.6 mph63%30.24 "Hg10 mi
8:00 AM57 °FSunny.7 mph67%30.21 "Hg10 mi
7:30 AM57 °FSunny.6 mph72%30.24 "Hg10 mi
7:00 AM54 °FSunny.6 mph82%30.21 "Hg10 mi
6:30 AM52 °FSunny.6 mph88%30.21 "Hg10 mi
6:00 AM55 °FClear.3 mph77%30.21 "Hg10 mi
5:30 AM55 °FClear.5 mph77%30.21 "Hg10 mi
5:00 AM57 °FClear.5 mph72%30.21 "Hg10 mi
4:30 AM55 °FClear.3 mph82%30.21 "Hg10 mi
4:00 AM57 °FClear.5 mph72%30.18 "Hg10 mi
3:30 AM57 °FClear.6 mph72%30.21 "Hg10 mi
3:00 AM59 °FClear.3 mph72%30.21 "Hg10 mi
2:30 AM59 °FClear.2 mph68%30.21 "Hg10 mi
2:00 AM59 °FClear.8 mph72%30.21 "Hg10 mi
1:00 AM59 °FClear.7 mph72%30.21 "Hg10 mi
12:30 AM57 °FClear.6 mph77%30.21 "Hg10 mi
12:00 AM57 °FClear.6 mph77%30.21 "Hg10 mi
11:00 PM
Tue, Jun 30
57 °FClear.6 mph77%30.21 "Hg10 mi
10:30 PM59 °FClear.5 mph72%30.21 "Hg10 mi
9:30 PM61 °FClear.7 mph68%30.21 "Hg10 mi
9:00 PM59 °FClear.3 mph77%30.21 "Hg10 mi
8:30 PM61 °FClear.5 mph72%30.21 "Hg10 mi
8:00 PM61 °FClear.8 mph68%30.18 "Hg10 mi
Weather by CustomWeather, © 2015

See weather overviewHow to use our weather pages